sat.trackr.live / text

‹ back to catalog

STARLINK-4392

NORAD 53489 · 2022-099AA

PAYLOAD ACTIVE UNKNOWN

§ Identity

Operator
Country
US
Launch date
2022-08-12
Launch site
AFWTR
Launch vehicle
Mass (kg)
RCS (m²)

Purposes: comms

External: N2YO · Heavens-Above · Gunter

§ Orbital elements

Epoch: 2026-05-25T01:09:16.272864Z

Period
95.64 min
Inclination
97.4523°
Eccentricity
0.0001440
Mean motion
15.05665928 rev/d
Perigee alt
548.5 km
Apogee alt
550.5 km
Semi-major
6,927.6 km
B*
1.3777e-4
RAAN
264.9611°
Arg perigee
207.4641°
Mean anomaly
152.6511°
Rev number
20,746

§ Raw data

STARLINK-43921 53489U 22099AA  26145.04810501  .00001931  00000+0  13777-3 0  99992 53489  97.4523 264.9611 0001440 207.4641 152.6511 15.05665928207460

JSON: /api/v1/satellites/53489 · /tle

For live sub-satellite position, see the globe view (requires WebGL).

§ Visibility from observer

Set your observer location to see the next 7 days of passes ≥ 10°. The values pass through the URL so the page stays shareable.

No JS? Fill the form by hand. The geolocation button needs JavaScript.